QPF
0.00 0.00 0.00 0.00 0.00 0.00 0.00 0.00 0.00 0.00 0.00 0.00 0.00 0.00 0.00 0.00 0.00 0.00 0.00 0.00 0.00 0.00 0.00 0.00 0.00 0.00 0.00 0.00 0.00 0.00 0.00 0.00 0.00 0.00 0.00 0.00 0.00 0.00 0.00 0.00 0.00 0.00 0.00 0.00
0.00 0.00 0.00 0.00 0.00 0.00 0.00 0.00 0.00 0.00 0.00 0.00 0.00 0.00 0.00 0.00 0.00 0.00 0.00 0.00 0.00 0.00 0.00 0.00 0.00 0.00 0.00 0.00 0.00 0.00 0.00 0.00 0.00 0.00 0.00 0.00 0.00 0.00 0.00 0.00 0.00 0.00 0.00 0.00
0.00 0.00 0.00 0.00 0.00 0.00 0.00 0.00 0.00 0.00 0.00 0.00 0.00 0.00 0.00 0.00 0.00 0.00 0.00 0.00 0.00 0.00 0.00 0.00 0.00 0.00 0.00 0.00 0.00 0.00 0.00 0.00 0.00 0.00 0.00 0.00 0.00 0.00 0.00 0.00 0.00 0.00 0.00 0.00
0.00 0.00 0.00 0.00 0.00 0.00 0.00 0.00 0.00 0.00 0.00 0.00 0.00 0.00 0.00 0.00 0.00 0.00 0.00 0.00 0.00 0.00 0.00 0.00 0.00 0.00 0.00 0.00 0.00 0.00 0.00 0.00 0.00 0.00 0.00 0.00 0.00 0.00 0.00 0.00 0.00 0.00 0.00 0.00
0.00 0.00 0.00 0.00 0.00 0.00 0.00 0.00 0.00 0.00 0.00 0.00 0.00 0.00 0.00 0.00 0.00 0.00 0.00 0.00 0.00 0.00 0.00 0.00 0.00 0.00 0.00 0.00 0.00 0.00 0.00 0.00 0.00 0.00 0.00 0.00 0.00 0.00 0.00 0.00 0.00 0.00 0.00 0.00
0.00 0.00 0.00 0.00 0.00 0.00 0.00 0.00 0.00 0.00 0.00 0.00 0.00 0.00 0.00 0.00 0.00 0.00 0.00 0.00 0.00 0.00 0.00 0.00 0.00 0.00 0.00 0.00 0.00 0.00 0.00 0.00 0.00 0.00 0.00 0.00 0.00 0.00 0.00 0.00 0.00 0.00 0.00 0.00
0.00 0.00 0.00 0.00 0.00 0.00 0.00 0.00 0.00 0.00 0.00 0.00 0.00 0.00 0.00 0.00 0.00 0.00 0.00 0.00 0.00 0.00 0.00 0.00 0.00 0.00 0.00 0.00 0.00 0.00 0.00 0.00 0.00 0.00 0.00 0.00 0.00 0.00 0.00 0.00 0.00 0.00 0.00 0.00
0.00 0.00 0.00 0.00 0.00 0.00 0.00 0.00 0.00 0.00 0.00 0.00 0.00 0.00 0.00 0.00 0.00 0.00 0.00 0.00 0.00 0.00 0.00 0.00 0.00 0.00 0.00 0.00 0.00 0.00 0.00 0.00 0.00 0.00 0.00 0.00 0.00 0.00 0.00 0.00 0.00 0.00 0.00 0.00
0.00 0.00 0.00 0.00 0.00 0.00 0.00 0.00 0.00 0.00 0.00 0.00 0.00 0.00 0.00 0.00 0.00 0.00 0.00 0.00 0.00 0.00 0.00 0.00 0.00 0.00 0.00 0.00 0.00 0.00 0.00 0.00 0.00 0.00 0.00 0.00 0.00 0.00 0.00 0.00 0.00 0.00 0.00 0.00
0.00 0.00 0.00 0.00 0.00 0.00 0.00 0.00 0.00 0.00 0.00 0.00 0.00 0.00 0.00 0.00 0.00 0.00 0.00 0.00 0.00 0.00 0.00 0.00 0.00 0.00 0.00 0.00 0.00 0.00 0.00 0.00 0.00 0.00 0.00 0.00 0.00 0.00 0.00 0.00 0.00 0.00 0.00 0.00
0.00 0.00 0.00 0.00 0.00 0.00 0.00 0.00 0.00 0.00 0.00 0.01 0.00 0.00 0.00 0.00 0.00 0.00 0.00 0.00 0.00 0.00 0.00 0.00 0.00 0.00 0.00 0.00 0.00 0.00 0.00 0.00 0.00 0.00 0.00 0.00 0.00 0.00 0.00 0.00 0.00 0.00 0.00 0.00
0.00 0.00 0.00 0.00 0.00 0.00 0.00 0.00 0.00 0.00 0.00 0.01 0.02 0.00 0.00 0.00 0.00 0.00 0.00 0.00 0.00 0.00 0.00 0.00 0.00 0.00 0.00 0.00 0.00 0.00 0.00 0.00 0.00 0.00 0.00 0.00 0.00 0.00 0.00 0.00 0.00 0.00 0.00 0.00
0.00 0.00 0.00 0.00 0.00 0.00 0.00 0.00 0.00 0.00 0.00 0.01 0.02 0.00 0.00 0.00 0.00 0.00 0.00 0.00 0.00 0.00 0.00 0.00 0.00 0.00 0.00 0.00 0.00 0.00 0.00 0.00 0.00 0.00 0.00 0.00 0.00 0.00 0.00 0.00 0.00 0.00 0.00 0.00
0.00 0.00 0.00 0.00 0.00 0.00 0.00 0.00 0.00 0.00 0.00 0.01 0.01 0.01 0.00 0.00 0.00 0.00 0.00 0.00 0.00 0.00 0.00 0.00 0.00 0.00 0.00 0.00 0.00 0.00 0.00 0.00 0.00 0.00 0.00 0.00 0.00 0.00 0.00 0.00 0.00 0.00 0.01 0.01
0.00 0.00 0.00 0.00 0.00 0.00 0.00 0.00 0.00 0.00 0.00 0.00 0.00 0.02 0.00 0.00 0.00 0.00 0.00 0.00 0.00 0.00 0.00 0.00 0.00 0.00 0.00 0.00 0.00 0.00 0.00 0.00 0.00 0.00 0.00 0.00 0.00 0.00 0.00 0.00 0.00 0.00 0.01 0.03
0.00 0.00 0.00 0.00 0.00 0.00 0.00 0.00 0.00 0.00 0.00 0.00 0.00 0.00 0.00 0.00 0.00 0.00 0.00 0.00 0.00 0.00 0.00 0.00 0.00 0.00 0.00 0.00 0.00 0.00 0.00 0.00 0.00 0.00 0.00 0.00 0.00 0.00 0.00 0.02 0.01 0.01 0.03 0.07
0.00 0.00 0.00 0.00 0.00 0.00 0.00 0.00 0.00 0.00 0.00 0.00 0.00 0.00 0.00 0.00 0.00 0.00 0.00 0.00 0.00 0.00 0.00 0.00 0.00 0.00 0.00 0.00 0.00 0.00 0.00 0.00 0.00 0.00 0.00 0.00 0.00 0.00 0.00 0.02 0.02 0.02 0.07 0.18
0.00 0.00 0.00 0.00 0.00 0.00 0.00 0.00 0.00 0.00 0.00 0.00 0.00 0.00 0.00 0.00 0.00 0.00 0.00 0.00 0.00 0.00 0.00 0.00 0.00 0.00 0.00 0.00 0.00 0.00 0.00 0.00 0.00 0.00 0.00 0.00 0.00 0.00 0.00 0.00 0.02 0.03 0.09 0.11
0.00 0.00 0.00 0.00 0.00 0.00 0.00 0.00 0.00 0.00 0.00 0.00 0.00 0.00 0.00 0.00 0.00 0.00 0.00 0.00 0.00 0.00 0.00 0.00 0.00 0.00 0.00 0.00 0.00 0.00 0.00 0.00 0.00 0.00 0.00 0.00 0.00 0.00 0.00 0.00 0.00 0.00 0.01 0.02
0.00 0.00 0.00 0.00 0.01 0.00 0.00 0.00 0.00 0.00 0.00 0.00 0.00 0.00 0.00 0.00 0.00 0.00 0.00 0.00 0.00 0.00 0.00 0.00 0.00 0.00 0.00 0.00 0.00 0.00 0.00 0.00 0.00 0.00 0.00 0.00 0.00 0.00 0.00 0.00 0.00 0.00 0.00 0.00
0.00 0.00 0.00 0.00 0.01 0.00 0.00 0.00 0.00 0.00 0.00 0.00 0.00 0.00 0.00 0.00 0.00 0.00 0.00 0.00 0.00 0.00 0.00 0.00 0.00 0.00 0.00 0.00 0.00 0.00 0.00 0.00 0.01 0.00 0.00 0.00 0.00 0.00 0.00 0.00 0.00 0.00 0.00 0.00
0.00 0.00 0.00 0.01 0.01 0.00 0.00 0.00 0.00 0.00 0.00 0.00 0.00 0.00 0.00 0.00 0.00 0.00 0.00 0.00 0.00 0.00 0.00 0.00 0.00 0.00 0.00 0.00 0.00 0.00 0.00 0.00 0.01 0.00 0.00 0.00 0.00 0.00 0.00 0.00 0.00 0.00 0.00 0.00
0.00 0.00 0.00 0.00 0.02 0.00 0.00 0.00 0.00 0.00 0.00 0.00 0.00 0.00 0.00 0.00 0.00 0.00 0.00 0.00 0.00 0.00 0.00 0.00 0.00 0.00 0.00 0.00 0.00 0.00 0.00 0.00 0.00 0.00 0.00 0.00 0.00 0.00 0.00 0.00 0.00 0.00 0.00 0.00
0.00 0.00 0.00 0.00 0.00 0.00 0.00 0.00 0.00 0.00 0.00 0.00 0.00 0.00 0.00 0.00 0.00 0.00 0.00 0.00 0.00 0.00 0.00 0.00 0.00 0.00 0.00 0.00 0.00 0.00 0.00 0.00 0.00 0.00 0.00 0.00 0.00 0.00 0.00 0.00 0.00 0.00 0.00 0.00
0.00 0.00 0.00 0.00 0.00 0.00 0.00 0.00 0.00 0.00 0.00 0.00 0.00 0.00 0.00 0.00 0.00 0.00 0.00 0.00 0.00 0.00 0.00 0.00 0.00 0.00 0.00 0.00 0.00 0.00 0.00 0.00 0.00 0.00 0.00 0.00 0.00 0.00 0.00 0.00 0.00 0.00 0.00 0.00
0.00 0.00 0.00 0.00 0.00 0.00 0.00 0.00 0.00 0.00 0.00 0.00 0.00 0.00 0.00 0.00 0.00 0.00 0.00 0.00 0.00 0.00 0.00 0.00 0.00 0.00 0.00 0.00 0.00 0.00 0.00 0.00 0.00 0.00 0.00 0.00 0.00 0.00 0.00 0.00 0.00 0.00 0.00 0.00
MSLP
1009.22 1008.08 1008.26 1008.62 1008.79 1008.62 1008.29 1008.06 1007.74 1007.89 1008.45 1008.65 1007.84 1008.31 1008.55 1010.07 1010.28 1010.62 1010.90 1011.25 1011.46 1011.61 1011.81 1012.03 1012.12 1012.09 1011.90 1011.67 1011.49 1011.38 1011.09 1010.88 1010.55 1009.68 1008.92 1008.09 1007.22 1006.51 1006.14 1005.99 1006.13 1006.82 1006.68 1006.47
1009.06 1008.74 1009.50 1009.46 1009.46 1009.14 1008.78 1008.34 1007.91 1008.21 1008.63 1008.84 1008.07 1007.99 1008.24 1009.65 1010.26 1010.89 1011.13 1011.34 1011.52 1011.55 1011.66 1011.80 1011.80 1011.74 1011.72 1011.57 1011.42 1011.22 1011.00 1010.78 1010.47 1009.82 1009.36 1009.11 1008.43 1007.65 1006.90 1006.33 1005.85 1005.64 1006.28 1006.58
1008.99 1009.92 1009.78 1009.66 1009.52 1009.26 1008.85 1008.64 1008.54 1008.63 1008.55 1008.17 1008.36 1007.10 1008.58 1009.73 1010.56 1011.01 1011.24 1011.50 1011.48 1011.50 1011.45 1011.42 1011.43 1011.33 1011.29 1011.16 1011.09 1010.96 1010.88 1010.69 1010.38 1010.12 1009.39 1008.64 1008.07 1007.37 1006.77 1006.14 1005.70 1005.50 1005.61 1005.74
1009.56 1010.28 1010.03 1009.71 1009.80 1009.74 1008.85 1009.52 1009.45 1009.07 1008.60 1007.68 1008.42 1007.53 1007.34 1009.00 1010.21 1010.80 1011.04 1011.13 1011.13 1011.17 1011.06 1010.87 1010.86 1010.86 1010.81 1010.65 1010.60 1010.53 1010.51 1010.44 1010.05 1009.83 1009.16 1008.62 1008.09 1007.14 1006.38 1005.89 1005.27 1005.00 1004.86 1004.80
1010.13 1010.39 1010.28 1010.00 1010.38 1010.35 1009.44 1010.11 1009.59 1009.32 1008.85 1008.44 1007.79 1008.16 1007.29 1008.94 1009.43 1009.82 1010.68 1010.81 1010.78 1010.71 1010.63 1010.31 1010.35 1010.39 1010.23 1010.23 1010.02 1009.98 1009.99 1009.96 1009.78 1009.54 1009.33 1008.69 1007.75 1006.97 1006.22 1005.76 1005.39 1005.16 1004.87 1004.45
1010.49 1011.10 1010.91 1010.85 1010.69 1010.73 1010.46 1010.06 1009.42 1009.39 1008.82 1008.30 1008.23 1008.39 1006.86 1008.07 1009.15 1010.02 1010.43 1010.62 1010.56 1010.28 1010.03 1009.95 1010.04 1009.94 1009.79 1009.70 1009.58 1009.56 1009.50 1009.35 1009.25 1009.21 1009.13 1008.75 1008.16 1007.47 1006.85 1006.21 1005.45 1004.61 1003.86 1003.32
1010.64 1010.71 1011.16 1011.24 1010.22 1010.58 1010.06 1009.66 1009.28 1008.74 1008.21 1007.69 1008.98 1008.88 1007.91 1009.35 1009.99 1010.52 1010.66 1010.39 1010.21 1010.09 1009.78 1009.78 1009.66 1009.53 1009.43 1009.27 1009.27 1009.18 1008.98 1008.80 1008.76 1008.56 1008.50 1008.21 1007.93 1007.43 1006.82 1006.23 1005.35 1004.26 1003.44 1002.82
1010.10 1010.44 1010.97 1011.40 1011.11 1010.78 1010.63 1010.69 1011.23 1010.91 1009.53 1008.70 1008.72 1008.46 1008.67 1009.86 1010.40 1010.60 1010.28 1010.26 1010.11 1009.86 1009.78 1009.63 1009.52 1009.44 1009.16 1009.15 1009.07 1008.96 1008.75 1008.25 1008.16 1007.97 1007.67 1007.61 1007.32 1006.74 1006.24 1005.87 1005.26 1004.39 1003.30 1002.51
1010.68 1010.76 1011.54 1011.73 1011.56 1011.44 1010.74 1010.86 1012.08 1012.20 1011.65 1010.88 1008.49 1008.75 1008.85 1009.96 1010.14 1010.00 1010.12 1010.06 1009.83 1009.64 1009.43 1009.25 1009.27 1009.08 1009.01 1008.91 1008.95 1008.89 1008.55 1008.23 1007.93 1007.70 1007.29 1006.82 1006.63 1006.28 1005.74 1005.39 1004.87 1004.30 1003.77 1002.47
1011.67 1011.40 1011.45 1011.64 1011.70 1011.68 1011.28 1011.99 1011.86 1012.24 1012.54 1011.04 1008.76 1008.77 1008.90 1009.06 1009.54 1009.97 1010.03 1009.70 1009.53 1009.26 1008.99 1008.95 1008.78 1008.58 1008.62 1008.67 1008.66 1008.56 1008.63 1008.28 1008.16 1007.88 1007.38 1006.78 1006.04 1005.54 1005.15 1004.81 1004.36 1003.85 1003.24 1002.69
1012.08 1012.22 1011.45 1011.72 1011.01 1010.35 1011.04 1011.06 1012.14 1012.75 1012.90 1012.60 1011.30 1009.19 1009.52 1009.81 1010.09 1010.06 1009.83 1009.57 1009.36 1009.00 1008.68 1008.58 1008.36 1008.29 1008.32 1008.33 1008.27 1008.40 1008.38 1008.27 1008.02 1007.63 1007.04 1006.25 1005.59 1004.91 1004.34 1003.81 1003.30 1002.88 1002.54 1002.13
1012.46 1012.34 1011.21 1010.77 1011.05 1011.45 1011.28 1011.20 1011.74 1012.28 1012.82 1013.10 1012.56 1010.76 1010.04 1010.16 1010.09 1009.81 1009.66 1009.49 1009.24 1009.07 1008.76 1008.30 1008.01 1008.05 1008.05 1008.04 1008.12 1008.21 1008.19 1008.03 1007.64 1007.11 1006.43 1005.60 1005.00 1004.24 1003.47 1002.69 1002.04 1001.83 1001.49 1001.06
1012.66 1012.15 1011.24 1010.82 1011.23 1011.53 1011.35 1011.27 1011.78 1012.26 1012.69 1012.41 1012.16 1010.67 1009.98 1009.96 1009.79 1009.53 1009.59 1009.50 1009.20 1008.86 1008.52 1008.20 1007.96 1007.89 1007.95 1008.02 1008.04 1007.98 1008.16 1007.86 1007.26 1006.72 1006.00 1005.11 1004.31 1003.39 1002.56 1001.76 1001.10 1000.66 1000.19 999.82
1013.36 1012.38 1011.88 1011.34 1010.48 1010.90 1010.83 1011.22 1011.44 1011.70 1011.66 1011.34 1010.89 1010.27 1009.66 1009.61 1009.40 1009.51 1009.61 1009.33 1009.00 1008.71 1008.47 1008.25 1008.04 1007.97 1008.12 1008.25 1008.14 1008.30 1008.03 1007.44 1007.10 1006.50 1005.68 1004.60 1003.48 1002.40 1001.47 1000.58 999.86 999.30 998.87 998.43
1013.02 1012.14 1011.72 1011.33 1011.10 1011.02 1010.86 1010.67 1010.63 1010.50 1010.67 1010.60 1010.21 1009.87 1009.40 1009.25 1009.58 1009.60 1009.37 1009.23 1008.98 1008.61 1008.42 1008.28 1008.14 1008.09 1008.24 1008.30 1008.70 1008.48 1008.05 1007.70 1007.06 1006.18 1005.14 1003.92 1002.72 1001.62 1000.41 999.19 998.00 997.76 997.68 997.42
1012.98 1012.13 1011.88 1011.29 1010.82 1010.61 1010.10 1009.85 1009.86 1009.71 1009.70 1009.68 1009.63 1009.20 1008.89 1009.36 1009.40 1009.37 1009.35 1009.20 1008.74 1008.56 1008.43 1008.30 1008.30 1008.42 1008.55 1008.95 1008.83 1008.49 1008.22 1007.61 1006.88 1005.72 1004.47 1003.41 1002.21 1000.93 999.58 998.05 996.41 996.70 996.61 996.23
1012.54 1012.20 1011.82 1010.42 1010.37 1010.11 1009.38 1008.41 1008.41 1008.77 1008.95 1009.07 1008.89 1008.97 1009.34 1009.13 1009.43 1009.47 1009.25 1008.83 1008.81 1008.69 1008.50 1008.44 1008.63 1008.98 1009.30 1009.42 1009.20 1008.89 1008.27 1007.38 1006.48 1005.49 1004.36 1003.19 1001.98 1000.56 999.82 998.97 997.90 997.70 997.68 997.78
1012.18 1012.48 1011.97 1010.85 1010.47 1009.51 1008.17 1008.68 1008.72 1008.93 1008.92 1008.98 1009.01 1009.15 1009.30 1009.29 1009.36 1009.24 1008.70 1008.88 1008.98 1008.82 1008.67 1008.94 1009.18 1009.45 1009.70 1009.68 1009.59 1009.07 1008.25 1007.33 1006.49 1005.47 1004.37 1003.13 1001.90 1001.04 1000.62 1000.10 999.56 999.23 999.26 999.66
1012.46 1012.38 1011.74 1011.02 1009.68 1008.82 1008.50 1008.56 1009.01 1008.78 1008.80 1008.98 1009.50 1009.46 1009.46 1009.31 1009.13 1008.00 1008.70 1009.11 1009.19 1009.04 1009.34 1009.64 1009.82 1009.64 1009.94 1010.03 1009.92 1009.16 1008.25 1007.54 1006.58 1005.58 1004.53 1003.48 1002.62 1001.92 1001.61 1001.27 1000.99 1000.69 1000.68 1000.92
1012.28 1012.57 1012.08 1010.63 1010.20 1009.02 1008.75 1009.49 1009.94 1009.69 1009.17 1009.70 1010.07 1009.91 1009.74 1009.38 1008.45 1008.22 1009.05 1008.95 1008.99 1009.33 1009.73 1009.98 1009.94 1009.94 1010.22 1010.46 1010.10 1009.32 1008.55 1007.78 1006.87 1005.97 1004.96 1004.24 1003.61 1003.13 1002.82 1002.79 1002.45 1002.43 1002.00 1002.76
1011.89 1012.00 1011.46 1010.88 1010.55 1009.56 1009.54 1010.19 1010.45 1010.22 1010.44 1010.61 1010.54 1010.29 1010.04 1009.79 1009.68 1009.32 1009.03 1009.02 1009.31 1009.76 1010.08 1010.40 1010.32 1010.26 1010.91 1010.98 1010.48 1009.67 1008.96 1008.17 1007.38 1006.67 1005.86 1005.22 1004.77 1004.35 1004.11 1003.90 1003.90 1004.13 1004.07 1004.27
1010.67 1010.63 1010.48 1010.57 1010.45 1010.43 1010.43 1010.62 1010.73 1011.12 1011.03 1010.95 1010.79 1010.68 1010.40 1010.15 1009.75 1009.43 1009.21 1009.23 1009.40 1009.91 1010.30 1010.72 1010.52 1011.13 1011.38 1011.42 1010.90 1010.12 1009.36 1008.78 1008.04 1007.40 1006.92 1006.39 1006.04 1005.51 1005.37 1005.16 1005.39 1005.66 1005.85 1005.74
1010.95 1010.56 1010.27 1010.17 1009.99 1010.74 1011.08 1011.35 1011.57 1011.74 1011.53 1011.30 1011.18 1010.96 1010.68 1010.30 1009.96 1009.64 1009.50 1009.56 1009.75 1010.28 1010.89 1011.18 1011.48 1011.63 1011.90 1011.87 1011.47 1010.66 1009.88 1009.29 1008.80 1008.28 1007.97 1007.69 1007.23 1006.98 1006.82 1006.52 1006.77 1007.00 1007.60 1007.65
1011.09 1011.36 1010.87 1010.75 1009.98 1010.39 1010.98 1011.24 1011.80 1011.90 1011.73 1011.56 1011.26 1011.08 1010.88 1010.53 1010.13 1009.97 1009.83 1009.91 1010.13 1010.65 1011.32 1011.66 1012.09 1012.19 1012.53 1012.46 1012.01 1011.32 1010.46 1010.01 1009.58 1009.25 1009.05 1008.86 1008.58 1008.49 1008.30 1008.14 1008.49 1008.53 1009.31 1009.72
1011.21 1011.49 1010.84 1010.57 1010.65 1010.54 1010.50 1010.76 1011.37 1011.78 1011.68 1011.45 1011.12 1010.96 1010.86 1010.73 1010.43 1010.38 1010.16 1010.36 1010.84 1011.25 1011.80 1012.18 1012.61 1012.89 1013.20 1013.15 1012.72 1011.96 1011.20 1010.77 1010.55 1010.30 1010.15 1010.00 1009.84 1009.54 1009.42 1009.51 1010.22 1010.42 1011.42 1011.63
1011.33 1011.41 1010.92 1010.06 1010.28 1010.90 1010.88 1011.17 1011.47 1011.63 1011.45 1011.24 1011.04 1010.82 1010.96 1010.90 1010.74 1010.70 1010.62 1011.00 1011.42 1011.87 1012.36 1012.76 1013.21 1013.63 1013.94 1013.81 1013.39 1012.70 1012.18 1011.71 1011.43 1011.14 1011.04 1011.01 1010.83 1010.64 1010.64 1011.15 1011.94 1012.67 1013.02 1013.26
Thickness
5721 5719 5704 5706 5707 5706 5703 5697 5693 5697 5698 5688 5693 5688 5690 5682 5680 5675 5673 5670 5668 5667 5670 5670 5670 5671 5673 5676 5677 5677 5680 5683 5686 5693 5697 5704 5710 5719 5725 5730 5732 5726 5729 5731
5710 5700 5701 5703 5698 5694 5694 5689 5691 5693 5692 5683 5687 5684 5690 5677 5672 5667 5664 5661 5660 5660 5660 5660 5661 5662 5662 5663 5665 5667 5669 5671 5673 5679 5683 5685 5690 5698 5705 5712 5720 5726 5721 5720
5698 5692 5701 5694 5691 5686 5689 5684 5683 5677 5685 5690 5680 5686 5672 5669 5665 5662 5660 5657 5656 5653 5652 5653 5653 5654 5655 5655 5656 5656 5657 5659 5662 5664 5670 5676 5681 5687 5692 5698 5705 5711 5714 5715
5696 5695 5690 5690 5681 5684 5679 5684 5678 5675 5673 5668 5676 5658 5677 5666 5654 5652 5652 5651 5651 5650 5652 5653 5651 5649 5648 5649 5650 5649 5649 5649 5652 5654 5659 5661 5665 5671 5681 5688 5696 5701 5708 5711
5684 5682 5681 5679 5674 5678 5678 5677 5675 5672 5668 5666 5671 5654 5673 5662 5650 5652 5647 5647 5649 5648 5648 5648 5647 5646 5646 5645 5645 5644 5642 5641 5643 5644 5644 5649 5657 5664 5671 5677 5682 5687 5693 5701
5685 5686 5681 5676 5678 5675 5678 5673 5678 5673 5670 5648 5660 5655 5676 5660 5652 5645 5644 5643 5643 5645 5647 5646 5644 5642 5640 5641 5639 5638 5636 5636 5637 5636 5635 5637 5641 5646 5652 5658 5666 5676 5686 5695
5677 5677 5678 5677 5677 5676 5677 5670 5650 5655 5658 5661 5654 5644 5660 5649 5646 5639 5635 5639 5642 5642 5642 5639 5636 5634 5633 5632 5631 5631 5631 5630 5630 5631 5630 5631 5632 5635 5639 5644 5653 5664 5674 5683
5668 5659 5669 5670 5664 5659 5661 5658 5621 5598 5638 5654 5661 5638 5641 5646 5642 5639 5641 5639 5638 5637 5636 5633 5631 5629 5628 5625 5623 5623 5623 5626 5626 5626 5627 5626 5626 5629 5632 5635 5641 5651 5662 5671
5662 5658 5666 5663 5665 5662 5658 5650 5647 5618 5632 5622 5659 5650 5652 5642 5637 5639 5635 5635 5633 5633 5633 5631 5628 5627 5622 5618 5614 5613 5614 5616 5618 5618 5619 5620 5619 5619 5622 5625 5630 5636 5643 5657
5658 5645 5660 5660 5661 5658 5655 5651 5633 5629 5590 5609 5655 5640 5630 5638 5634 5631 5628 5630 5631 5632 5631 5628 5627 5624 5620 5614 5610 5607 5604 5606 5605 5604 5606 5608 5611 5613 5614 5615 5618 5624 5631 5639
5656 5644 5651 5652 5651 5655 5648 5647 5635 5627 5617 5593 5598 5634 5639 5630 5626 5624 5626 5629 5627 5627 5627 5625 5624 5621 5617 5612 5608 5602 5599 5596 5594 5595 5598 5601 5602 5604 5606 5608 5612 5617 5621 5627
5650 5643 5641 5649 5655 5652 5649 5642 5637 5613 5603 5600 5594 5606 5638 5630 5627 5626 5624 5624 5624 5622 5620 5621 5620 5617 5613 5608 5602 5596 5592 5588 5586 5588 5591 5594 5594 5596 5600 5603 5607 5609 5614 5620
5645 5641 5636 5638 5642 5641 5634 5638 5633 5625 5615 5602 5581 5603 5633 5628 5624 5625 5618 5618 5618 5617 5617 5616 5614 5611 5606 5601 5596 5591 5583 5580 5579 5578 5581 5584 5585 5589 5591 5594 5597 5602 5607 5614
5633 5636 5628 5615 5637 5638 5627 5625 5627 5620 5607 5607 5606 5612 5622 5620 5619 5617 5613 5615 5615 5612 5609 5608 5606 5603 5598 5592 5588 5580 5576 5575 5569 5567 5568 5574 5580 5585 5587 5588 5592 5597 5602 5607
5631 5626 5633 5634 5635 5632 5627 5625 5626 5621 5619 5606 5614 5611 5619 5619 5611 5610 5611 5610 5607 5606 5604 5601 5597 5594 5589 5584 5573 5569 5565 5558 5555 5556 5559 5566 5574 5577 5581 5587 5595 5595 5595 5599
5625 5622 5624 5622 5630 5629 5626 5630 5628 5627 5625 5620 5616 5613 5626 5618 5614 5608 5605 5603 5603 5601 5598 5596 5591 5585 5579 5569 5564 5559 5550 5545 5542 5546 5554 5559 5565 5572 5581 5590 5603 5597 5598 5603
5618 5619 5613 5620 5627 5624 5617 5636 5635 5630 5629 5621 5610 5616 5616 5612 5604 5600 5600 5602 5597 5595 5593 5589 5583 5574 5565 5556 5550 5542 5537 5537 5537 5540 5544 5550 5558 5569 5572 5577 5583 5584 5584 5584
5613 5606 5610 5611 5616 5601 5638 5639 5634 5623 5624 5623 5619 5614 5611 5608 5605 5602 5605 5598 5593 5591 5589 5581 5574 5566 5555 5547 5538 5531 5528 5528 5528 5532 5536 5542 5550 5557 5561 5564 5568 5572 5572 5569
5609 5604 5601 5600 5613 5627 5630 5631 5622 5618 5616 5621 5609 5608 5607 5607 5605 5611 5603 5596 5590 5588 5580 5570 5562 5558 5547 5535 5525 5521 5521 5520 5521 5525 5530 5534 5541 5547 5550 5554 5558 5563 5564 5562
5600 5597 5595 5608 5593 5587 5619 5620 5619 5618 5602 5611 5604 5601 5599 5601 5596 5601 5597 5597 5592 5585 5573 5564 5558 5551 5538 5525 5517 5516 5516 5514 5516 5517 5522 5526 5531 5536 5539 5542 5547 5551 5556 5553
5586 5586 5588 5592 5585 5605 5612 5609 5609 5591 5596 5596 5596 5595 5594 5588 5589 5594 5596 5592 5586 5577 5567 5558 5551 5543 5526 5514 5509 5508 5509 5507 5507 5509 5512 5515 5521 5526 5530 5534 5537 5538 5541 5543
5592 5588 5590 5591 5581 5571 5603 5598 5591 5592 5593 5592 5591 5588 5586 5587 5589 5589 5589 5586 5582 5573 5564 5554 5549 5531 5518 5505 5500 5501 5500 5500 5503 5504 5504 5509 5513 5519 5521 5526 5527 5528 5528 5533
5575 5590 5591 5593 5590 5589 5588 5584 5587 5585 5584 5584 5582 5582 5581 5581 5581 5584 5583 5580 5577 5568 5557 5548 5537 5525 5512 5499 5493 5493 5495 5497 5499 5501 5501 5502 5506 5510 5512 5518 5520 5520 5518 5522
5574 5576 5578 5576 5591 5585 5582 5582 5578 5577 5576 5577 5578 5576 5576 5574 5577 5577 5577 5574 5571 5563 5552 5543 5530 5521 5505 5494 5490 5489 5494 5495 5496 5495 5496 5497 5500 5502 5506 5510 5510 5513 5509 5510
5567 5565 5569 5570 5573 5576 5582 5579 5572 5569 5571 5571 5573 5572 5570 5569 5570 5570 5571 5567 5563 5556 5548 5538 5526 5516 5502 5492 5487 5489 5492 5492 5492 5492 5493 5494 5495 5500 5504 5504 5499 5501 5495 5496
5558 5553 5558 5563 5569 5566 5567 5567 5565 5563 5562 5564 5565 5566 5565 5564 5563 5563 5562 5558 5556 5548 5542 5532 5522 5510 5498 5490 5487 5486 5486 5488 5490 5491 5492 5492 5495 5496 5499 5496 5491 5487 5486 5487